Torna al catalogo

HULIANWANG DIGUI-154

AttivoComunicazioniLEO
NORAD 67530·PAYLOAD·🇨🇳 China

Lanciato Jan 19, 2026 da Wenchang Space Launch Site

Loading…

Prossimi Passaggi (prossime 24 ore)

TLE

AggiornatoSource: Space-Track

Epoca: Sep 14, 2026, 09:43 UTC

1 67530U 26013J   26257.40510424 -.00000106  00000-0  39009-4 0  9998
2 67530  50.0077  35.3228 0000823  85.5873 274.5093 13.29329349 31913

Traccia HULIANWANG DIGUI-154 in tempo reale con AllMySat

Download on the App Store